Tracking 28790 objects as of 19-Apr-2024
HD Live streaming from Space Station
objects crossing your sky now

DMSP 5D-2 F13 DEB

Track DMSP 5D-2 F13 DEB now!
10-day predictions


NORAD ID: 40438
Int'l Code: 1995-015AQ
Perigee: 761.4 km
Apogee: 791.4 km
Inclination: 98.8 °
Period: 100.2 minutes
Semi major axis: 7147 km
RCS: Unknown
Launch date: March 24, 1995
Source: United States (US)
Launch site: AIR FORCE WESTERN TEST RANGE (AFWTR)

Note: This is SATELLITE DEBRIS
Your satellite tracking list
Your tracking list is empty




NASA's NSSDC Master Catalog

Two Line Element Set (TLE):
1 40438U 95015AQ  24109.46448274  .00033165  00000-0  11178-1 0  9991
2 40438  98.8472 115.3669 0020976 321.9963  37.9741 14.36747630472259
Source of the keplerian elements: AFSPC